Lid_Strength_Index
0 0 1 1 1 1 1 1 2 2 2 2 2 2 2 2 2 2 2 2 2 3 3 3 2 2 4 11 9 1 -1 -1 0 5 8 8 7 7 9 8 7 8 7 6 6 6 6
0 0 0 1 1 1 1 2 2 2 2 2 2 2 2 2 2 2 2 2 3 3 3 3 2 1 7 13 8 0 0 2 6 10 9 8 6 6 7 7 8 7 7 7 6 6 6
1 1 1 1 1 2 2 2 2 2 2 2 2 2 2 2 2 2 3 3 3 3 3 2 2 2 9 10 4 5 6 5 7 10 10 8 7 7 6 8 5 6 9 8 7 6 7
2 1 1 1 2 2 2 2 2 2 2 2 2 2 2 2 2 3 3 3 3 3 2 2 1 5 12 7 5 4 7 7 7 8 10 9 7 7 6 6 6 8 9 12 8 7 6
1 1 1 2 2 2 2 2 2 2 2 2 2 2 2 2 3 3 4 3 3 2 1 1 6 9 11 4 6 6 6 7 8 10 10 6 8 7 6 9 10 10 13 12 10 7 8
0 0 1 1 1 2 2 2 2 2 2 2 2 2 2 3 3 4 4 3 3 2 2 1 2 11 7 8 6 6 7 6 8 11 10 10 11 11 11 11 13 13 13 11 11 9 8
0 0 0 1 1 1 1 1 1 2 2 2 2 2 3 3 3 4 5 8 8 9 7 8 8 9 7 5 5 6 7 8 9 12 14 14 13 12 9 10 9 10 11 12 10 8 9
2 1 1 1 1 1 1 1 1 2 2 2 2 2 3 3 4 4 6 8 8 8 10 7 7 6 6 6 7 6 7 9 10 12 14 14 14 11 9 10 10 10 11 12 9 8 9
2 2 2 2 2 2 2 2 2 2 2 2 2 3 3 4 4 5 6 7 5 7 11 8 7 7 6 5 7 7 8 10 11 12 13 14 13 10 9 11 11 13 12 12 11 9 9
3 3 3 3 3 3 3 3 2 2 3 3 3 3 3 4 5 6 6 5 4 6 12 10 9 7 5 5 8 4 8 9 11 11 12 13 11 10 10 11 11 14 10 9 10 11 14
3 3 3 3 3 3 3 3 3 3 3 3 3 3 4 4 6 7 5 5 5 8 17 8 9 6 6 8 9 9 8 9 11 11 11 12 12 12 12 10 10 12 9 10 10 12 13
4 4 4 4 3 3 4 4 4 4 4 4 3 4 4 6 6 5 4 5 8 13 16 10 9 9 8 9 8 8 9 8 9 11 12 11 10 10 10 10 9 10 10 11 13 12 16
4 4 4 4 4 4 4 4 4 4 4 4 5 5 4 4 6 5 5 8 14 15 11 10 12 10 11 10 10 9 10 12 12 14 14 13 12 11 10 12 12 12 13 15 17 17 17
4 4 4 4 4 4 4 4 4 4 4 5 5 6 6 5 5 4 8 11 16 12 11 9 10 11 11 11 10 11 11 12 13 13 15 15 15 12 11 12 13 15 13 15 18 18 16
4 4 4 4 4 4 4 4 4 4 4 5 5 7 7 6 4 5 9 14 15 13 10 10 11 12 13 11 11 12 12 12 11 12 14 15 14 11 12 12 11 14 14 13 16 18 17
5 4 4 4 4 4 4 4 4 4 4 5 7 7 7 4 4 9 11 14 13 11 9 11 13 12 14 13 12 13 13 11 10 11 12 13 15 13 11 11 12 13 11 15 16 17 18
5 5 4 4 4 4 4 4 4 5 5 5 7 8 6 5 8 9 13 13 10 9 9 12 12 13 12 13 12 13 12 11 10 12 12 14 13 13 13 13 13 13 14 15 15 16 17
5 4 4 4 4 4 4 4 4 5 5 6 9 10 6 7 11 13 13 11 9 11 10 9 11 11 12 11 13 13 12 10 10 11 12 12 15 15 13 13 12 14 14 14 15 16 16
5 4 4 4 4 4 4 4 5 5 5 5 8 9 4 6 12 13 11 10 9 10 10 10 10 10 11 12 13 12 11 9 10 11 11 12 15 16 14 13 13 14 14 15 15 15 15
5 4 4 3 4 4 4 4 5 5 5 5 8 10 7 8 10 11 11 10 10 7 9 8 9 10 11 12 12 12 12 10 10 10 5 8 16 14 15 14 13 14 13 14 14 15 16
5 4 4 4 4 4 4 4 5 5 5 6 8 10 9 11 10 11 10 9 10 10 8 8 9 10 10 13 12 13 11 12 9 7 10 11 13 15 15 12 10 11 11 13 13 13 13
5 4 4 4 4 4 4 4 4 4 4 7 10 8 8 9 9 11 11 11 10 9 9 9 10 8 9 11 11 11 12 12 12 10 13 12 13 12 13 11 10 11 11 10 11 10 12
4 4 4 4 4 3 4 3 4 4 5 6 4 4 6 9 10 11 10 10 9 8 7 7 8 8 9 9 8 8 9 11 12 12 13 12 13 13 14 12 11 13 11 11 11 10 11
4 4 4 4 4 3 3 3 3 4 4 5 5 5 7 11 10 10 9 8 9 8 9 7 7 9 8 6 8 9 12 11 10 14 14 13 13 15 15 13 16 11 9 9 10 10 9
4 4 3 3 3 3 3 3 3 3 3 4 5 6 6 10 9 9 8 9 8 8 8 8 7 7 7 9 11 12 12 13 13 12 13 13 12 14 14 15 12 10 9 10 11 11 8
4 3 3 3 3 2 3 2 3 3 3 4 4 4 6 8 10 7 9 8 10 10 9 8 7 7 8 12 12 14 13 13 15 12 11 10 12 12 14 15 16 11 8 6 7 12 7
4 3 3 3 2 2 2 2 2 2 2 4 6 3 5 8 6 6 9 9 7 9 10 10 8 9 9 12 14 13 13 10 13 13 13 12 12 13 14 15 12 9 7 6 12 11 7
3 3 2 2 2 1 1 1 1 2 1 2 4 3 4 6 6 4 4 7 7 8 11 9 9 9 10 12 13 13 12 12 13 13 13 12 13 14 14 15 15 7 7 10 8 6 6
3 2 2 1 1 1 1 1 1 1 1 1 4 4 2 5 6 4 4 3 5 6 8 9 9 10 10 10 11 11 12 11 12 14 11 13 11 13 12 11 9 7 8 6 6 6 6